| time (UTC) | temp F | wind direction | speed MPH | gust MPH | rain 1hr in | rain 24hr in | rain mn in | humidity % | barometer mb |
| 20260507101321 | 58 | 109 | 6.0 | 11.0 | 0.00 | 5.79 | 0.02 | 72 | 1014.3 |
| 20260507100820 | 59 | 149 | 7.0 | 11.0 | 0.00 | 5.79 | 0.02 | 71 | 1014.3 |
| 20260507100339 | 59 | 103 | 8.0 | 11.0 | 0.00 | 5.79 | 0.02 | 71 | 1014.3 |
| 20260507095838 | 59 | 102 | 3.0 | 6.0 | 0.00 | 5.79 | 0.02 | 72 | 1014.3 |
| 20260507095334 | 58 | 83 | 2.0 | 7.0 | 0.00 | 5.79 | 0.02 | 75 | 1014.2 |
| 20260507094836 | 58 | 109 | 4.0 | 7.0 | 0.00 | 5.79 | 0.02 | 71 | 1014.3 |
| 20260507094354 | 57 | 170 | 1.0 | 4.0 | 0.00 | 5.79 | 0.02 | 72 | 1014.3 |
| 20260507093833 | 56 | 146 | 2.0 | 3.0 | 0.00 | 5.79 | 0.02 | 73 | 1014.3 |
| 20260507093331 | 56 | 119 | 2.0 | 3.0 | 0.00 | 5.79 | 0.02 | 71 | 1014.3 |
| 20260507092830 | 56 | 132 | 2.0 | 4.0 | 0.00 | 5.79 | 0.02 | 73 | 1014.5 |
| 20260507092330 | 56 | 103 | 2.0 | 6.0 | 0.00 | 5.79 | 0.02 | 72 | 1014.4 |
| 20260507091829 | 56 | 91 | 4.0 | 6.0 | 0.00 | 5.79 | 0.02 | 70 | 1014.4 |
| 20260507091326 | 57 | 90 | 4.0 | 8.0 | 0.00 | 5.87 | 0.02 | 72 | 1014.3 |
| 20260507090844 | 57 | 109 | 5.0 | 8.0 | 0.00 | 5.87 | 0.02 | 71 | 1014.4 |
| 20260507090322 | 58 | 112 | 5.0 | 7.0 | 0.00 | 5.87 | 0.02 | 72 | 1014.3 |
| 20260507085819 | 57 | 114 | 2.0 | 6.0 | 0.00 | 5.87 | 0.02 | 72 | 1014.3 |
| 20260507085510 | 56 | 130 | 3.0 | 6.0 | 0.00 | 5.87 | 0.02 | 77 | 1014.3 |
| 20260507084830 | 55 | 134 | 2.0 | 6.0 | 0.00 | 5.87 | 0.02 | 79 | 1014.3 |
| 20260507084350 | 55 | 107 | 2.0 | 6.0 | 0.00 | 5.87 | 0.02 | 81 | 1014.2 |
| 20260507083828 | 55 | 135 | 3.0 | 4.0 | 0.00 | 5.87 | 0.02 | 80 | 1014.3 |
| 20260507083328 | 55 | 117 | 1.0 | 4.0 | 0.00 | 5.87 | 0.02 | 79 | 1014.3 |
| 20260507082848 | 55 | 112 | 2.0 | 6.0 | 0.00 | 5.87 | 0.02 | 84 | 1014.3 |
| 20260507082346 | 55 | 109 | 3.0 | 8.0 | 0.00 | 5.87 | 0.02 | 82 | 1014.2 |
| 20260507081823 | 55 | 118 | 5.0 | 8.0 | 0.00 | 5.87 | 0.02 | 83 | 1014.2 |
| 20260507081320 | 55 | 105 | 4.0 | 7.0 | 0.00 | 6.10 | 0.02 | 83 | 1014.1 |
| 20260507080817 | 55 | 138 | 2.0 | 4.0 | 0.00 | 6.10 | 0.02 | 84 | 1014.1 |
| 20260507080331 | 54 | 91 | 3.0 | 4.0 | 0.00 | 6.10 | 0.02 | 85 | 1014.0 |
| 20260507075828 | 53 | 117 | 1.0 | 3.0 | 0.00 | 6.10 | 0.02 | 85 | 1014.1 |
| 20260507075328 | 53 | 161 | 2.0 | 2.0 | 0.00 | 6.10 | 0.02 | 85 | 1014.0 |
| 20260507074828 | 53 | 141 | 1.0 | 3.0 | 0.00 | 6.10 | 0.02 | 86 | 1014.0 |
| 20260507074346 | 53 | 140 | 2.0 | 4.0 | 0.00 | 6.10 | 0.02 | 83 | 1014.0 |
| 20260507073822 | 53 | 110 | 3.0 | 4.0 | 0.00 | 6.10 | 0.02 | 85 | 1014.0 |
| 20260507073342 | 53 | 91 | 1.0 | 4.0 | 0.00 | 6.10 | 0.02 | 86 | 1014.0 |
| 20260507072840 | 53 | 136 | 1.0 | 6.0 | 0.00 | 6.10 | 0.02 | 85 | 1013.9 |
| 20260507072342 | 54 | 102 | 4.0 | 6.0 | 0.00 | 6.10 | 0.02 | 84 | 1014.1 |
| 20260507071820 | 53 | 113 | 1.0 | 2.0 | 0.00 | 6.10 | 0.02 | 85 | 1014.0 |
| 20260507071318 | 53 | 128 | 1.0 | 5.0 | 0.00 | 6.14 | 0.02 | 86 | 1014.0 |
| 20260507070818 | 53 | 156 | 2.0 | 5.0 | 0.00 | 6.14 | 0.02 | 88 | 1013.9 |
| 20260507070317 | 52 | 194 | 2.0 | 3.0 | 0.00 | 6.14 | 0.02 | 88 | 1013.8 |
| 20260507065818 | 52 | 134 | 0.0 | 3.0 | 0.00 | 6.14 | 0.02 | 87 | 1013.8 |
| 20260507065316 | 52 | 105 | 2.0 | 3.0 | 0.00 | 6.14 | 0.02 | 86 | 1013.9 |
| 20260507064816 | 53 | 112 | 2.0 | 3.0 | 0.00 | 6.14 | 0.02 | 86 | 1013.9 |
| 20260507064336 | 53 | 137 | 2.0 | 4.0 | 0.00 | 6.14 | 0.02 | 85 | 1013.7 |
| 20260507063814 | 53 | 109 | 3.0 | 5.0 | 0.00 | 6.14 | 0.02 | 82 | 1013.6 |
| 20260507063333 | 53 | 110 | 2.0 | 5.0 | 0.00 | 6.14 | 0.02 | 79 | 1013.7 |
| 20260507062833 | 53 | 169 | 1.0 | 6.0 | 0.00 | 6.14 | 0.02 | 79 | 1013.6 |
| 20260507062331 | 52 | 244 | 3.0 | 8.0 | 0.00 | 6.14 | 0.02 | 81 | 1013.6 |
| 20260507061830 | 51 | 252 | 5.0 | 9.0 | 0.00 | 6.14 | 0.02 | 81 | 1013.7 |
| 20260507061328 | 51 | 246 | 5.0 | 9.0 | 0.00 | 6.46 | 0.02 | 85 | 1013.6 |
| 20260507060828 | 50 | 254 | 4.0 | 8.0 | 0.00 | 6.46 | 0.02 | 87 | 1013.7 |
| 20260507060326 | 50 | 236 | 3.0 | 8.0 | 0.00 | 6.46 | 0.02 | 88 | 1013.7 |
| 20260507055823 | 50 | 243 | 6.0 | 8.0 | 0.00 | 6.46 | 0.02 | 84 | 1013.7 |
| 20260507055321 | 50 | 242 | 4.0 | 5.0 | 0.00 | 6.46 | 0.02 | 86 | 1013.7 |
| 20260507054841 | 51 | 229 | 2.0 | 5.0 | 0.00 | 6.46 | 0.02 | 86 | 1013.7 |
| 20260507054319 | 51 | 208 | 3.0 | 4.0 | 0.00 | 6.46 | 0.02 | 87 | 1013.5 |
| 20260507053820 | 50 | 13 | 0.0 | 3.0 | 0.00 | 6.46 | 0.02 | 83 | 1013.6 |
| 20260507053317 | 50 | 355 | 2.0 | 4.0 | 0.00 | 6.46 | 0.02 | 84 | 1013.5 |
| 20260507052837 | 50 | 244 | 3.0 | 4.0 | 0.00 | 6.46 | 0.02 | 85 | 1013.5 |
| 20260507052334 | 50 | 202 | 2.0 | 4.0 | 0.00 | 6.46 | 0.02 | 87 | 1013.5 |
| 20260507051833 | 50 | 262 | 3.0 | 4.0 | 0.00 | 6.46 | 0.02 | 88 | 1013.4 |
| 20260507051332 | 50 | 261 | 3.0 | 4.0 | 0.00 | 7.24 | 0.02 | 88 | 1013.3 |
| 20260507050831 | 50 | 310 | 2.0 | 4.0 | 0.00 | 7.24 | 0.02 | 87 | 1013.4 |
| 20260507050330 | 50 | 304 | 2.0 | 7.0 | 0.00 | 7.24 | 0.02 | 86 | 1013.3 |
| 20260507045829 | 50 | 240 | 4.0 | 7.0 | 0.00 | 7.24 | 0.02 | 86 | 1013.3 |
| 20260507045329 | 50 | 224 | 3.0 | 5.0 | 0.00 | 7.24 | 0.02 | 85 | 1013.2 |
| 20260507044828 | 50 | 234 | 3.0 | 7.0 | 0.00 | 7.24 | 0.02 | 87 | 1013.3 |
| 20260507044327 | 49 | 278 | 3.0 | 7.0 | 0.00 | 7.24 | 0.02 | 88 | 1013.1 |
| 20260507043827 | 49 | 282 | 2.0 | 4.0 | 0.00 | 7.24 | 0.02 | 88 | 1013.1 |
| 20260507043326 | 49 | 223 | 2.0 | 3.0 | 0.00 | 7.24 | 0.02 | 88 | 1013.0 |
| 20260507042826 | 49 | 270 | 1.0 | 2.0 | 0.00 | 7.24 | 0.02 | 88 | 1012.9 |
| 20260507042325 | 50 | 275 | 0.0 | 3.0 | 0.00 | 7.24 | 0.02 | 88 | 1012.9 |
| 20260507041825 | 50 | 275 | 0.0 | 4.0 | 0.00 | 7.24 | 0.02 | 87 | 1012.9 |
| 20260507041326 | 50 | 282 | 3.0 | 7.0 | 0.00 | 7.32 | 0.02 | 87 | 1012.8 |
| 20260507040826 | 49 | 271 | 5.0 | 7.0 | 0.00 | 7.32 | 0.02 | 87 | 1012.7 |
| 20260507040325 | 49 | 272 | 3.0 | 6.0 | 0.00 | 7.32 | 0.02 | 88 | 1012.8 |
| 20260507035822 | 49 | 288 | 3.0 | 5.0 | 0.00 | 7.32 | 0.02 | 88 | 1012.8 |
| 20260507035323 | 49 | 280 | 4.0 | 5.0 | 0.00 | 7.32 | 0.02 | 88 | 1012.7 |
| 20260507034822 | 49 | 270 | 3.0 | 4.0 | 0.00 | 7.32 | 0.02 | 88 | 1012.8 |
| 20260507034318 | 49 | 285 | 3.0 | 4.0 | 0.00 | 7.32 | 0.02 | 88 | 1012.8 |
| 20260507033816 | 49 | 269 | 2.0 | 4.0 | 0.00 | 7.32 | 0.02 | 88 | 1012.8 |
| 20260507033316 | 49 | 284 | 3.0 | 4.0 | 0.00 | 7.32 | 0.02 | 87 | 1012.8 |
| 20260507032837 | 49 | 311 | 1.0 | 4.0 | 0.00 | 7.32 | 0.02 | 87 | 1012.7 |
| 20260507032336 | 49 | 270 | 2.0 | 4.0 | 0.00 | 7.32 | 0.02 | 88 | 1012.9 |
| 20260507031831 | 49 | 196 | 3.0 | 4.0 | 0.00 | 7.32 | 0.02 | 87 | 1012.9 |
| 20260507031330 | 49 | 355 | 1.0 | 5.0 | 0.00 | 7.32 | 0.02 | 87 | 1012.9 |
| 20260507030851 | 49 | 355 | 3.0 | 5.0 | 0.00 | 7.32 | 0.02 | 87 | 1012.7 |
| 20260507030350 | 49 | 311 | 3.0 | 7.0 | 0.00 | 7.32 | 0.02 | 87 | 1012.8 |
| 20260507025829 | 49 | 298 | 2.0 | 5.0 | 0.00 | 7.32 | 0.02 | 88 | 1012.7 |
| 20260507025326 | 49 | 311 | 3.0 | 5.0 | 0.00 | 7.32 | 0.02 | 88 | 1012.7 |
| 20260507024825 | 49 | 265 | 3.0 | 5.0 | 0.00 | 7.32 | 0.02 | 88 | 1012.6 |
| 20260507024323 | 49 | 261 | 3.0 | 5.0 | 0.04 | 7.32 | 0.02 | 88 | 1012.6 |
| 20260507023822 | 49 | 279 | 2.0 | 4.0 | 0.04 | 7.32 | 0.02 | 88 | 1012.7 |
| 20260507023321 | 49 | 250 | 2.0 | 4.0 | 0.04 | 7.32 | 0.02 | 88 | 1012.6 |
| 20260507022820 | 49 | 275 | 3.0 | 4.0 | 0.04 | 7.32 | 0.02 | 88 | 1012.6 |
| 20260507022318 | 49 | 252 | 3.0 | 4.0 | 0.04 | 7.32 | 0.02 | 89 | 1012.6 |
| 20260507021820 | 49 | 251 | 2.0 | 3.0 | 0.04 | 7.32 | 0.02 | 89 | 1012.6 |
| 20260507021320 | 49 | 282 | 2.0 | 3.0 | 0.04 | 7.32 | 0.02 | 88 | 1012.6 |
| 20260507020819 | 49 | 279 | 0.0 | 3.0 | 0.04 | 7.32 | 0.02 | 88 | 1012.7 |
| 20260507020316 | 49 | 326 | 0.0 | 5.0 | 0.04 | 7.32 | 0.02 | 88 | 1012.6 |
| 20260507015837 | 49 | 61 | 3.0 | 5.0 | 0.04 | 7.32 | 0.02 | 88 | 1012.5 |
| 20260507015315 | 49 | 302 | 2.0 | 4.0 | 0.04 | 7.32 | 0.02 | 88 | 1012.5 |
| 20260507014833 | 49 | 275 | 2.0 | 4.0 | 0.04 | 7.32 | 0.02 | 89 | 1012.4 |
| 20260507014332 | 49 | 277 | 0.0 | 3.0 | 0.00 | 7.28 | 0.01 | 88 | 1012.4 |
| 20260507013853 | 49 | 275 | 2.0 | 4.0 | 0.00 | 7.28 | 0.01 | 88 | 1012.5 |
| 20260507013328 | 49 | 276 | 3.0 | 4.0 | 0.00 | 7.28 | 0.01 | 89 | 1012.5 |
| 20260507012827 | 49 | 14 | 0.0 | 3.0 | 0.00 | 7.28 | 0.01 | 87 | 1012.4 |
| 20260507012326 | 49 | 32 | 2.0 | 3.0 | 0.00 | 7.28 | 0.01 | 88 | 1012.5 |
| 20260507011824 | 49 | 255 | 0.0 | 3.0 | 0.00 | 7.28 | 0.01 | 87 | 1012.4 |
| 20260507011323 | 49 | 304 | 2.0 | 3.0 | 0.00 | 7.28 | 0.01 | 87 | 1012.3 |
| 20260507010821 | 49 | 302 | 2.0 | 3.0 | 0.00 | 7.28 | 0.01 | 88 | 1012.4 |
| 20260507010340 | 49 | 74 | 0.0 | 3.0 | 0.00 | 7.28 | 0.01 | 88 | 1012.4 |
| 20260507005817 | 49 | 331 | 0.0 | 3.0 | 0.00 | 7.28 | 0.01 | 87 | 1012.4 |
| 20260507005315 | 49 | 301 | 0.0 | 4.0 | 0.00 | 7.28 | 0.01 | 88 | 1012.5 |
| 20260507004815 | 49 | 290 | 1.0 | 4.0 | 0.00 | 7.28 | 0.01 | 88 | 1012.4 |
| 20260507004315 | 49 | 254 | 2.0 | 5.0 | 0.00 | 7.28 | 0.01 | 87 | 1012.6 |
| 20260507003815 | 49 | 280 | 4.0 | 7.0 | 0.00 | 7.28 | 0.01 | 87 | 1012.6 |
| 20260507003315 | 49 | 262 | 4.0 | 5.0 | 0.00 | 7.28 | 0.01 | 87 | 1012.7 |
| 20260507002831 | 49 | 285 | 3.0 | 9.0 | 0.04 | 7.28 | 0.01 | 86 | 1012.7 |
| 20260507002329 | 49 | 263 | 6.0 | 8.0 | 0.04 | 7.28 | 0.01 | 87 | 1012.7 |
| 20260507001829 | 49 | 270 | 6.0 | 8.0 | 0.04 | 7.28 | 0.01 | 88 | 1012.7 |
| 20260507001330 | 49 | 272 | 4.0 | 5.0 | 0.04 | 7.32 | 0.01 | 88 | 1012.8 |
| 20260507000829 | 49 | 239 | 4.0 | 5.0 | 0.04 | 7.32 | 0.01 | 87 | 1012.8 |
| 20260507000329 | 49 | 262 | 2.0 | 3.0 | 0.04 | 7.32 | 0.01 | 88 | 1012.8 |
| 20260506235829 | 49 | 344 | 1.0 | 3.0 | 0.04 | 7.32 | 0.01 | 87 | 1012.7 |
| 20260506235343 | 49 | 305 | 1.0 | 2.0 | 0.04 | 7.32 | 0.01 | 87 | 1012.8 |
| 20260506234820 | 49 | 305 | 0.0 | 3.0 | 0.04 | 7.32 | 0.01 | 87 | 1012.7 |
| 20260506234318 | 49 | 315 | 2.0 | 3.0 | 0.04 | 7.32 | 0.01 | 87 | 1012.6 |
| 20260506233818 | 49 | 250 | 2.0 | 4.0 | 0.04 | 7.32 | 0.01 | 87 | 1012.7 |
| 20260506233317 | 49 | 252 | 2.0 | 6.0 | 0.04 | 7.32 | 0.01 | 86 | 1012.7 |
| 20260506232816 | 49 | 261 | 2.0 | 4.0 | 0.00 | 7.28 | 0.00 | 86 | 1012.6 |
| 20260506232336 | 49 | 234 | 2.0 | 6.0 | 0.00 | 7.28 | 0.00 | 87 | 1012.7 |
| 20260506231814 | 49 | 282 | 3.0 | 6.0 | 0.00 | 7.28 | 0.00 | 87 | 1012.8 |
| 20260506231332 | 49 | 293 | 2.0 | 3.0 | 0.00 | 7.28 | 0.00 | 87 | 1012.8 |
| 20260506230830 | 49 | 331 | 0.0 | 3.0 | 0.00 | 7.28 | 0.00 | 86 | 1012.7 |
| 20260506230326 | 49 | 313 | 1.0 | 3.0 | 0.00 | 7.28 | 0.00 | 88 | 1012.6 |
| 20260506225844 | 49 | 264 | 2.0 | 4.0 | 0.00 | 7.28 | 0.00 | 87 | 1012.6 |
| 20260506225324 | 49 | 254 | 3.0 | 5.0 | 0.00 | 7.28 | 0.00 | 87 | 1012.7 |
| 20260506224824 | 49 | 277 | 3.0 | 7.0 | 0.00 | 7.28 | 0.00 | 86 | 1012.6 |
| 20260506224322 | 49 | 260 | 3.0 | 9.0 | 0.00 | 7.28 | 0.00 | 87 | 1012.6 |
| 20260506223821 | 48 | 271 | 6.0 | 8.0 | 0.04 | 7.28 | 0.00 | 88 | 1012.7 |
| 20260506223320 | 48 | 275 | 3.0 | 4.0 | 0.04 | 7.28 | 0.00 | 88 | 1012.7 |
| 20260506222816 | 48 | 303 | 2.0 | 4.0 | 0.04 | 7.28 | 0.00 | 88 | 1012.8 |
| 20260506222314 | 49 | 321 | 3.0 | 4.0 | 0.08 | 7.28 | 0.00 | 88 | 1012.7 |
| 20260506221832 | 49 | 269 | 2.0 | 4.0 | 0.12 | 7.28 | 0.00 | 88 | 1012.8 |
| 20260506221313 | 49 | 294 | 3.0 | 4.0 | 0.12 | 7.91 | 1.46 | 88 | 1012.8 |
| 20260506220813 | 49 | 292 | 2.0 | 4.0 | 0.12 | 7.91 | 1.46 | 88 | 1012.8 |
| 20260506220312 | 49 | 229 | 3.0 | 4.0 | 0.12 | 7.91 | 1.46 | 87 | 1012.8 |
| 20260506215832 | 49 | 303 | 2.0 | 4.0 | 0.12 | 7.91 | 1.46 | 85 | 1012.8 |
| 20260506215331 | 49 | 329 | 1.0 | 2.0 | 0.12 | 7.91 | 1.46 | 85 | 1012.9 |
| 20260506214850 | 49 | 339 | 1.0 | 5.0 | 0.12 | 7.91 | 1.46 | 85 | 1012.9 |
| 20260506214329 | 49 | 300 | 3.0 | 4.0 | 0.12 | 7.91 | 1.46 | 87 | 1012.8 |
| 20260506213848 | 49 | 289 | 1.0 | 4.0 | 0.08 | 7.87 | 1.45 | 88 | 1012.9 |
| 20260506213326 | 49 | 279 | 0.0 | 4.0 | 0.08 | 7.87 | 1.45 | 87 | 1012.8 |
| 20260506212825 | 49 | 258 | 3.0 | 5.0 | 0.08 | 7.87 | 1.45 | 88 | 1013.0 |
| 20260506212325 | 50 | 280 | 3.0 | 8.0 | 0.04 | 7.83 | 1.44 | 88 | 1012.8 |
| 20260506211844 | 49 | 290 | 6.0 | 8.0 | 0.00 | 7.80 | 1.43 | 87 | 1012.9 |
| 20260506211321 | 50 | 261 | 6.0 | 8.0 | 0.00 | 7.83 | 1.43 | 88 | 1012.9 |
| 20260506210821 | 50 | 263 | 5.0 | 7.0 | 0.00 | 7.83 | 1.43 | 87 | 1012.8 |
| 20260506210322 | 50 | 282 | 4.0 | 7.0 | 0.00 | 7.83 | 1.43 | 87 | 1012.8 |
| 20260506205820 | 50 | 300 | 4.0 | 7.0 | 0.00 | 7.83 | 1.43 | 86 | 1012.9 |
| 20260506205320 | 50 | 84 | 3.0 | 5.0 | 0.00 | 7.83 | 1.43 | 84 | 1012.8 |
| 20260506204820 | 50 | 266 | 2.0 | 5.0 | 0.00 | 7.83 | 1.43 | 85 | 1012.8 |
| 20260506204320 | 50 | 259 | 3.0 | 8.0 | 0.00 | 7.83 | 1.43 | 84 | 1012.9 |
| 20260506203820 | 50 | 355 | 2.0 | 9.0 | 0.00 | 7.83 | 1.43 | 83 | 1012.9 |
| 20260506203318 | 50 | 5 | 4.0 | 10.0 | 0.00 | 7.83 | 1.43 | 82 | 1012.8 |
| 20260506202819 | 50 | 38 | 3.0 | 12.0 | 0.00 | 7.83 | 1.43 | 84 | 1012.8 |
| 20260506202319 | 50 | 275 | 1.0 | 3.0 | 0.00 | 7.83 | 1.43 | 88 | 1012.8 |
| 20260506201819 | 50 | 229 | 1.0 | 5.0 | 0.00 | 7.83 | 1.43 | 88 | 1012.7 |
| 20260506201319 | 50 | 224 | 4.0 | 6.0 | 0.00 | 7.87 | 1.43 | 88 | 1012.5 |
| 20260506200838 | 51 | 90 | 0.0 | 3.0 | 0.00 | 7.87 | 1.43 | 89 | 1012.6 |
| 20260506200317 | 51 | 90 | 2.0 | 4.0 | 0.00 | 7.87 | 1.43 | 89 | 1012.6 |
| 20260506195816 | 51 | 33 | 2.0 | 4.0 | 0.00 | 7.87 | 1.43 | 89 | 1012.6 |
| 20260506195336 | 51 | 232 | 1.0 | 4.0 | 0.00 | 7.87 | 1.43 | 87 | 1012.5 |
| 20260506194816 | 51 | 80 | 2.0 | 6.0 | 0.00 | 7.87 | 1.43 | 87 | 1012.3 |
| 20260506194316 | 51 | 298 | 3.0 | 6.0 | 0.00 | 7.87 | 1.43 | 86 | 1012.4 |
| 20260506193814 | 51 | 17 | 3.0 | 6.0 | 0.00 | 7.87 | 1.43 | 85 | 1012.2 |
| 20260506193312 | 51 | 53 | 2.0 | 6.0 | 0.00 | 7.87 | 1.43 | 86 | 1012.0 |
| 20260506192814 | 51 | 294 | 3.0 | 5.0 | 0.00 | 7.87 | 1.43 | 86 | 1012.1 |
| 20260506192332 | 51 | 285 | 3.0 | 10.0 | 0.00 | 7.87 | 1.43 | 85 | 1012.1 |
| 20260506191830 | 50 | 229 | 5.0 | 12.0 | 0.00 | 7.87 | 1.43 | 85 | 1012.1 |
| 20260506191329 | 50 | 269 | 7.0 | 12.0 | 0.00 | 7.87 | 1.43 | 87 | 1012.0 |
| 20260506190830 | 50 | 219 | 4.0 | 8.0 | 0.00 | 7.87 | 1.43 | 85 | 1011.9 |
| 20260506190326 | 51 | 26 | 3.0 | 6.0 | 0.00 | 7.87 | 1.43 | 84 | 1012.0 |
| 20260506185828 | 51 | 360 | 2.0 | 9.0 | 0.04 | 7.87 | 1.43 | 83 | 1011.9 |
| 20260506185326 | 51 | 322 | 5.0 | 9.0 | 0.24 | 7.87 | 1.43 | 82 | 1011.7 |
| 20260506184826 | 51 | 281 | 3.0 | 9.0 | 0.35 | 7.87 | 1.43 | 82 | 1011.8 |
| 20260506184325 | 50 | 204 | 3.0 | 8.0 | 0.39 | 7.87 | 1.43 | 85 | 1011.8 |
| 20260506183842 | 50 | 329 | 4.0 | 8.0 | 0.59 | 7.87 | 1.43 | 89 | 1011.6 |
| 20260506183322 | 50 | 267 | 2.0 | 7.0 | 1.14 | 7.87 | 1.43 | 90 | 1011.6 |
| 20260506182822 | 50 | 95 | 1.0 | 7.0 | 1.61 | 7.87 | 1.43 | 90 | 1011.4 |
| 20260506182320 | 50 | 86 | 1.0 | 7.0 | 2.20 | 7.87 | 1.43 | 91 | 1011.4 |
| 20260506181817 | 49 | 258 | 5.0 | 7.0 | 2.24 | 7.87 | 1.43 | 91 | 1011.3 |
| 20260506181315 | 50 | 261 | 3.0 | 5.0 | 2.24 | 7.87 | 1.43 | 91 | 1011.2 |
| 20260506180833 | 50 | 273 | 4.0 | 6.0 | 2.28 | 7.87 | 1.43 | 90 | 1011.4 |
| 20260506180353 | 50 | 188 | 1.0 | 6.0 | 2.28 | 7.87 | 1.43 | 89 | 1011.3 |
| 20260506175851 | 50 | 26 | 2.0 | 11.0 | 2.24 | 7.83 | 1.43 | 89 | 1011.0 |
| 20260506175330 | 50 | 316 | 6.0 | 14.0 | 2.05 | 7.64 | 1.39 | 88 | 1011.0 |
| 20260506174848 | 49 | 265 | 10.0 | 14.0 | 1.89 | 7.48 | 1.35 | 88 | 1010.8 |
| 20260506174347 | 49 | 257 | 11.0 | 17.0 | 1.89 | 7.48 | 1.35 | 87 | 1010.7 |
| 20260506173823 | 49 | 255 | 11.0 | 17.0 | 1.65 | 7.24 | 1.31 | 86 | 1010.5 |
| 20260506173322 | 51 | 246 | 11.0 | 17.0 | 1.06 | 6.65 | 1.19 | 83 | 1010.4 |
| 20260506172842 | 54 | 14 | 9.0 | 17.0 | 0.55 | 6.14 | 1.09 | 76 | 1010.4 |
| 20260506172319 | 55 | 269 | 12.0 | 17.0 | 0.08 | 5.67 | 0.99 | 76 | 1009.9 |
| 20260506171817 | 55 | 226 | 4.0 | 8.0 | 0.04 | 5.63 | 0.98 | 77 | 1009.5 |
| 20260506171336 | 55 | 79 | 5.0 | 8.0 | 0.04 | 5.63 | 0.98 | 86 | 1009.1 |
| 20260506170817 | 55 | 306 | 5.0 | 8.0 | 0.00 | 5.59 | 0.98 | 88 | 1009.4 |
| 20260506170336 | 55 | 296 | 3.0 | 4.0 | 0.00 | 5.59 | 0.98 | 88 | 1009.1 |
| 20260506165814 | 55 | 189 | 2.0 | 3.0 | 0.00 | 5.59 | 0.98 | 87 | 1008.7 |
| 20260506165314 | 55 | 109 | 0.0 | 6.0 | 0.00 | 5.59 | 0.98 | 87 | 1008.5 |
| 20260506164832 | 55 | 90 | 1.0 | 8.0 | 0.00 | 5.59 | 0.98 | 86 | 1008.4 |
| 20260506164330 | 55 | 224 | 5.0 | 8.0 | 0.00 | 5.59 | 0.98 | 87 | 1008.6 |
| 20260506163829 | 55 | 42 | 2.0 | 5.0 | 0.00 | 5.59 | 0.98 | 86 | 1008.8 |
| 20260506163348 | 55 | 327 | 3.0 | 6.0 | 0.00 | 5.59 | 0.98 | 86 | 1008.8 |
| 20260506162825 | 55 | 238 | 4.0 | 6.0 | 0.00 | 5.59 | 0.98 | 87 | 1008.7 |
| 20260506162324 | 55 | 257 | 1.0 | 3.0 | 0.00 | 5.59 | 0.98 | 88 | 1008.6 |
| 20260506161823 | 55 | 184 | 2.0 | 4.0 | 0.00 | 5.59 | 0.98 | 85 | 1008.8 |
| 20260506161322 | 55 | 277 | 1.0 | 4.0 | 0.00 | 5.87 | 0.98 | 85 | 1008.8 |
| 20260506160822 | 55 | 252 | 2.0 | 4.0 | 0.00 | 5.87 | 0.98 | 87 | 1009.0 |
| 20260506160322 | 56 | 250 | 3.0 | 4.0 | 0.00 | 5.87 | 0.98 | 88 | 1009.1 |
| 20260506155823 | 56 | 166 | 2.0 | 4.0 | 0.00 | 5.87 | 0.98 | 86 | 1009.1 |
| 20260506155336 | 56 | 327 | 1.0 | 2.0 | 0.00 | 5.87 | 0.98 | 84 | 1008.9 |
| 20260506154834 | 56 | 285 | 0.0 | 3.0 | 0.00 | 5.87 | 0.98 | 86 | 1008.8 |
| 20260506154353 | 56 | 302 | 1.0 | 3.0 | 0.00 | 5.87 | 0.98 | 86 | 1008.8 |
| 20260506153830 | 56 | 194 | 1.0 | 3.0 | 0.00 | 5.87 | 0.98 | 86 | 1008.9 |
| 20260506153327 | 56 | 169 | 2.0 | 3.0 | 0.00 | 5.87 | 0.98 | 86 | 1009.0 |
| 20260506152825 | 56 | 83 | 1.0 | 3.0 | 0.00 | 5.87 | 0.98 | 86 | 1008.9 |
| 20260506152324 | 55 | 38 | 2.0 | 3.0 | 0.00 | 5.87 | 0.98 | 87 | 1009.0 |
| 20260506151821 | 55 | 107 | 1.0 | 3.0 | 0.00 | 5.87 | 0.98 | 87 | 1009.0 |
| 20260506151340 | 55 | 148 | 1.0 | 2.0 | 0.00 | 6.06 | 0.98 | 85 | 1009.1 |
| 20260506150819 | 55 | 232 | 0.0 | 3.0 | 0.00 | 6.06 | 0.98 | 86 | 1009.2 |
| 20260506150338 | 55 | 185 | 2.0 | 4.0 | 0.00 | 6.06 | 0.98 | 88 | 1009.4 |
| 20260506145814 | 55 | 175 | 1.0 | 4.0 | 0.00 | 6.06 | 0.98 | 87 | 1009.4 |
| 20260506145331 | 55 | 257 | 2.0 | 3.0 | 0.00 | 6.06 | 0.98 | 87 | 1009.4 |
| 20260506144832 | 55 | 205 | 2.0 | 4.0 | 0.00 | 6.06 | 0.98 | 87 | 1009.5 |
| 20260506144331 | 55 | 244 | 3.0 | 5.0 | 0.00 | 6.06 | 0.98 | 87 | 1009.6 |
| 20260506143829 | 55 | 165 | 2.0 | 5.0 | 0.00 | 6.06 | 0.98 | 88 | 1009.7 |
| 20260506143327 | 55 | 175 | 0.0 | 3.0 | 0.00 | 6.06 | 0.98 | 87 | 1009.8 |
| 20260506142825 | 54 | 109 | 2.0 | 3.0 | 0.00 | 6.06 | 0.98 | 88 | 1010.0 |
| 20260506142323 | 54 | 175 | 1.0 | 2.0 | 0.00 | 6.06 | 0.98 | 86 | 1010.0 |
| 20260506141821 | 54 | 175 | 1.0 | 3.0 | 0.00 | 6.06 | 0.98 | 87 | 1010.1 |
| 20260506141341 | 54 | 316 | 1.0 | 3.0 | 0.00 | 6.26 | 0.98 | 87 | 1010.1 |
| 20260506140837 | 54 | 167 | 0.0 | 2.0 | 0.00 | 6.26 | 0.98 | 89 | 1010.2 |
| 20260506140315 | 54 | 164 | 1.0 | 3.0 | 0.00 | 6.26 | 0.98 | 89 | 1010.2 |
| 20260506135816 | 53 | 190 | 2.0 | 3.0 | 0.00 | 6.26 | 0.98 | 90 | 1010.4 |
| 20260506135316 | 53 | 123 | 2.0 | 4.0 | 0.00 | 6.26 | 0.98 | 91 | 1010.3 |
| 20260506134815 | 53 | 171 | 3.0 | 4.0 | 0.00 | 6.26 | 0.98 | 92 | 1010.3 |
| 20260506134331 | 53 | 207 | 3.0 | 3.0 | 0.00 | 6.26 | 0.98 | 91 | 1010.4 |
| 20260506133829 | 52 | 193 | 3.0 | 3.0 | 0.00 | 6.26 | 0.98 | 93 | 1010.5 |
| 20260506133348 | 52 | 244 | 2.0 | 3.0 | 0.00 | 6.26 | 0.98 | 93 | 1010.4 |
| 20260506132825 | 52 | 239 | 3.0 | 4.0 | 0.00 | 6.26 | 0.98 | 93 | 1010.6 |
| 20260506132324 | 52 | 212 | 2.0 | 4.0 | 0.00 | 6.26 | 0.98 | 94 | 1010.6 |
| 20260506131824 | 52 | 144 | 2.0 | 3.0 | 0.00 | 6.26 | 0.98 | 95 | 1010.6 |
| 20260506131324 | 52 | 227 | 3.0 | 4.0 | 0.00 | 6.54 | 0.98 | 96 | 1010.5 |
| 20260506130822 | 52 | 205 | 3.0 | 4.0 | 0.00 | 6.54 | 0.98 | 96 | 1010.6 |
| 20260506130320 | 52 | 222 | 2.0 | 5.0 | 0.00 | 6.54 | 0.98 | 96 | 1010.5 |
| 20260506125817 | 51 | 220 | 2.0 | 5.0 | 0.00 | 6.54 | 0.98 | 96 | 1010.6 |
| 20260506125337 | 51 | 194 | 1.0 | 2.0 | 0.00 | 6.54 | 0.98 | 96 | 1010.6 |
| 20260506124815 | 51 | 306 | 0.0 | 2.0 | 0.00 | 6.54 | 0.98 | 96 | 1010.6 |
| 20260506124316 | 51 | 232 | 1.0 | 3.0 | 0.00 | 6.54 | 0.98 | 96 | 1010.6 |
| 20260506123816 | 51 | 190 | 2.0 | 3.0 | 0.00 | 6.54 | 0.98 | 96 | 1010.7 |
| 20260506123316 | 51 | 162 | 2.0 | 4.0 | 0.00 | 6.54 | 0.98 | 96 | 1010.6 |
| 20260506122816 | 51 | 103 | 3.0 | 4.0 | 0.00 | 6.54 | 0.98 | 96 | 1010.8 |
| 20260506122315 | 51 | 163 | 2.0 | 4.0 | 0.00 | 6.54 | 0.98 | 96 | 1010.7 |
| 20260506121830 | 52 | 95 | 2.0 | 4.0 | 0.04 | 6.54 | 0.98 | 96 | 1010.7 |
| 20260506121351 | 51 | 112 | 3.0 | 4.0 | 0.08 | 6.61 | 0.98 | 96 | 1010.8 |
| 20260506120830 | 51 | 191 | 0.0 | 3.0 | 0.20 | 6.61 | 0.98 | 96 | 1010.8 |
| 20260506120330 | 51 | 158 | 3.0 | 4.0 | 0.28 | 6.61 | 0.98 | 96 | 1010.8 |
| 20260506115831 | 51 | 125 | 2.0 | 4.0 | 0.39 | 6.61 | 0.98 | 96 | 1010.9 |
| 20260506115330 | 51 | 119 | 2.0 | 4.0 | 0.51 | 6.61 | 0.98 | 96 | 1010.9 |
| 20260506114830 | 51 | 146 | 2.0 | 3.0 | 0.67 | 6.61 | 0.98 | 96 | 1010.9 |
| 20260506114330 | 51 | 115 | 1.0 | 3.0 | 0.75 | 6.61 | 0.98 | 97 | 1010.9 |
| 20260506113829 | 50 | 180 | 1.0 | 2.0 | 0.94 | 6.61 | 0.98 | 96 | 1010.9 |
| 20260506113326 | 50 | 140 | 0.0 | 2.0 | 1.10 | 6.61 | 0.98 | 96 | 1010.9 |
| 20260506112828 | 50 | 140 | 0.0 | 2.0 | 1.50 | 6.61 | 0.98 | 95 | 1011.0 |
| 20260506112325 | 50 | 140 | 0.0 | 2.0 | 1.69 | 6.57 | 0.97 | 95 | 1011.0 |
| 20260506111827 | 50 | 173 | 0.0 | 2.0 | 2.40 | 6.57 | 0.97 | 95 | 1010.9 |
| 20260506111325 | 50 | 105 | 0.0 | 2.0 | 2.56 | 6.54 | 0.96 | 95 | 1010.9 |
| 20260506110824 | 50 | 119 | 1.0 | 4.0 | 2.48 | 6.42 | 0.94 | 95 | 1011.0 |
| 20260506110343 | 50 | 117 | 2.0 | 4.0 | 2.40 | 6.34 | 0.92 | 95 | 1011.0 |
| 20260506105822 | 50 | 279 | 1.0 | 3.0 | 2.36 | 6.22 | 0.90 | 95 | 1010.9 |
| 20260506105321 | 51 | 59 | 0.0 | 4.0 | 2.28 | 6.10 | 0.87 | 94 | 1011.0 |
| 20260506104820 | 51 | 59 | 3.0 | 4.0 | 2.24 | 5.94 | 0.84 | 94 | 1010.9 |
| 20260506104319 | 51 | 117 | 3.0 | 6.0 | 2.32 | 5.83 | 0.83 | 94 | 1010.9 |
| 20260506103819 | 51 | 263 | 0.0 | 6.0 | 2.17 | 5.63 | 0.78 | 93 | 1010.8 |
| 20260506103318 | 51 | 246 | 2.0 | 5.0 | 2.05 | 5.51 | 0.76 | 94 | 1010.9 |
| 20260506102844 | 50 | 302 | 3.0 | 9.0 | 1.65 | 5.08 | 0.67 | 93 | 1010.9 |
| 20260506102322 | 51 | 236 | 5.0 | 9.0 | 1.46 | 4.80 | 0.61 | 93 | 1011.1 |
| 20260506101819 | 51 | 257 | 6.0 | 8.0 | 0.83 | 4.13 | 0.48 | 92 | 1011.1 |